Location: Hawks Ness
(60.2333°N, 1.1667°W)
Time: 12:34:40
(UTC+00:00)

Cosmos 1953 - Pass Details

Date: 22 October 2019
Orbit: 538 x 559 km, 82.5° (Epoch: 20 November)

Event Time Altitude Azimuth Distance (km) Brightness Sun altitude
Rises 02:56:53 0° 348° (NNW) 2,752 6.2 -29.8°
Reaches altitude 10° 02:59:15 10° 358° (N) 1,849 5.3 -29.6°
Maximum altitude 03:02:57 33° 64° (ENE) 940 4.0 -29.2°
Enters shadow 03:03:08 33° 70° (ENE) 943 4.0 -29.2°
Exits shadow 03:08:49 - 140° (SE) 2,667 5.9 -28.6°
Sets 03:08:56 0° 140° (SE) 2,710 6.0 -28.6°
